This is the latest recevied weather packets stored in our database for station/object EB1BWO-10. If no packets are shown the sender has not sent any weather packets the latest 10 day(s).
| Time | Temp. | Humidity | Pressure | Rain* | Wind** | Luminosity | Snow |
|---|---|---|---|---|---|---|---|
| 1777617766 | 13.89° C | 82% | 953.9 hPa | - | - | - | - |
| 1777616866 | 13.89° C | 82% | 953.8 hPa | - | - | - | - |
| 1777615966 | 13.33° C | 82% | 953.8 hPa | - | - | - | - |
| 1777615066 | 12.78° C | 82% | 953.9 hPa | - | - | - | - |
| 1777614166 | 12.78° C | 83% | 953.9 hPa | - | - | - | - |
| 1777613266 | 12.78° C | 83% | 953.8 hPa | - | - | - | - |
| 1777612366 | 12.78° C | 83% | 953.7 hPa | - | - | - | - |
| 1777611466 | 12.22° C | 83% | 953.6 hPa | - | - | - | - |
| 1777610566 | 12.22° C | 83% | 953.5 hPa | - | - | - | - |
| 1777609666 | 12.22° C | 83% | 953.5 hPa | - | - | - | - |
| 1777608766 | 12.22° C | 85% | 953.6 hPa | - | - | - | - |
| 1777607866 | 11.67° C | 85% | 953.6 hPa | - | - | - | - |
| 1777606966 | 12.22° C | 84% | 953.6 hPa | - | - | - | - |
| 1777606065 | 12.22° C | 86% | 953.6 hPa | - | - | - | - |
| 1777605165 | 11.67° C | 86% | 953.7 hPa | - | - | - | - |
| 1777604265 | 11.11° C | 85% | 953.7 hPa | - | - | - | - |
| 1777603365 | 11.67° C | 86% | 953.7 hPa | - | - | - | - |
| 1777602465 | 11.11° C | 86% | 953.7 hPa | - | - | - | - |
| 1777601565 | 11.11° C | 86% | 953.7 hPa | - | - | - | - |
| 1777600665 | 11.11° C | 87% | 953.7 hPa | - | - | - | - |
| 1777599765 | 11.11° C | 86% | 953.9 hPa | - | - | - | - |
| 1777598865 | 11.11° C | 87% | 954 hPa | - | - | - | - |
| 1777597965 | 11.11° C | 87% | 954 hPa | - | - | - | - |
| 1777596166 | 11.11° C | 86% | 954.3 hPa | - | - | - | - |
| 1777595266 | 11.11° C | 85% | 954.3 hPa | - | - | - | - |
* Rain since midnight (hover to see other rain measurements)
** Current wind speed in m/s (hover to see current wind gust speed)